Weather in Malinovka

Russia / Krasnoyarsk Krai     56°16′44″N   90°34′29″E
temp.,
°C
wind,
m/s
gust,
m/s
humid.,
%
clouds,
%
prec.,
mm/h
press.,
hPa
HPBL,
m
18 april, sun
sun1801:00−10s349021 0.0 102453
04:00−9sse2689100 0.0 1022101
07:00−6s41084100 0.0 1019317
10:00−1ssw6976100 0.0 1016948
13:00+2sw610766 0.1 10151391
16:00+3sw6106986 0.0 10141458
19:00+2sw51171100 0.0 1013503
22:000s41181100 0.0 1010266
19 april, mon
mon1901:000s61397100 0.3 1005599
04:000s71598100 2.2 998643
07:00+1sw71498100 6.7 995826
10:000wsw12178094 0.4 9951687
13:00−6wnw111683100 0.8 10081272
16:00−5w9136997 0.1 10151600
19:00−7w81271100 0.3 10181652
22:00−9w6127790 0.0 10201296
20 april, tue
tue2001:00−9w7127899 0.1 10191227
04:00−9w71284100 0.1 10191168
07:00−9w71383100 0.2 1020922
10:00−7w81174100 0.0 10211025
13:00−5w81066100 0.1 10211389
16:00−3wnw7960100 0.1 10211637
19:00−4w5865100 0.1 10221113
22:00−7w27815 0.0 1023190
21 april, wed
wed2101:00−8wsw24875 0.0 1024109
04:00−9ssw12895 0.0 102430
07:00−7s237938 0.0 102586
10:00−3ssw2359100 0.0 10261157
13:00−2wsw2248100 0.1 10251447
16:00−1ne0144100 0.1 10251451
19:00−1ne2254100 0.1 1027347
22:00−4nne246834 0.0 102898
22 april, thu
thu2201:00−4ne258296 0.0 1029138
04:00−4ne268199 0.0 1030175
07:00−4ne377815 0.0 1033250
10:00−1ne56579 0.0 10341139
13:00+1nne5647100 0.1 10341801
16:00+2nne5646100 0.1 10351667
19:00+1nne3659100 0.2 1037286
22:00−2nne377791 0.0 1040165